When you browse on this site, cookies collect data to enhance your experience and personalize the content and advertising you see.
Visit our Privacy Policy to learn more. By continuing to use the site, you agree to this use of cookies and data.
  • In Germany
  • List of Countries
  • For 7 days
  • Water Temperature
  • Weather Map
  • Weather Widgets
  • user-avatar
    Login

    Hourly Weather Córdoba

    Today, 25 February, Tuesday

    Time Temperature Precipitation Wind Pressure Humidity
    00:00 +24°C° 0 mm 3 mps 721 mmHg 54%
    01:00 +24°C° 0 mm 3 mps 721 mmHg 50%
    02:00 +23°C° 0 mm 4 mps 721 mmHg 49%
    03:00 +22°C° 0 mm 3 mps 721 mmHg 49%
    04:00 +21°C° 0 mm 3 mps 721 mmHg 49%
    05:00 +20°C° 0 mm 2 mps 721 mmHg 49%
    06:00 +20°C° 0.1 mm 2 mps 721 mmHg 49%
    07:00 +21°C° 0.1 mm 2 mps 722 mmHg 49%
    08:00 +22°C° 0.1 mm 3 mps 722 mmHg 49%
    09:00 +23°C° 0.6 mm 2 mps 723 mmHg 53%
    10:00 +21°C° 0.6 mm 2 mps 723 mmHg 58%
    11:00 +21°C° 0.6 mm 2 mps 723 mmHg 62%
    12:00 +24°C° 0.6 mm 2 mps 723 mmHg 57%
    13:00 +26°C° 0.6 mm 2 mps 722 mmHg 53%
    14:00 +28°C° 0.6 mm 2 mps 722 mmHg 48%
    15:00 +29°C° 0.1 mm 2 mps 722 mmHg 44%
    16:00 +29°C° 0.1 mm 1 mps 722 mmHg 39%
    17:00 +30°C° 0.1 mm 1 mps 722 mmHg 35%
    18:00 +28°C° 0 mm 1 mps 722 mmHg 41%
    19:00 +26°C° 0 mm 2 mps 722 mmHg 46%
    20:00 +24°C° 0 mm 2 mps 723 mmHg 52%
    21:00 +24°C° 0 mm 2 mps 723 mmHg 49%
    22:00 +22°C° 0 mm 3 mps 724 mmHg 46%
    23:00 +22°C° 0 mm 3 mps 725 mmHg 44%

    Tomorrow, 26 February, Wednesday

    Time Temperature Precipitation Wind Pressure Humidity
    00:00 +21°C° 0 mm 3 mps 724 mmHg 38%
    01:00 +20°C° 0 mm 3 mps 724 mmHg 33%
    02:00 +20°C° 0 mm 2 mps 724 mmHg 28%
    03:00 +19°C° 0 mm 2 mps 724 mmHg 28%
    04:00 +19°C° 0 mm 2 mps 724 mmHg 28%
    05:00 +19°C° 0 mm 2 mps 724 mmHg 28%
    06:00 +20°C° 0 mm 2 mps 725 mmHg 27%
    07:00 +21°C° 0 mm 3 mps 725 mmHg 27%
    08:00 +22°C° 0 mm 3 mps 726 mmHg 27%
    09:00 +25°C° 0 mm 3 mps 726 mmHg 25%
    10:00 +27°C° 0 mm 3 mps 726 mmHg 22%
    11:00 +30°C° 0 mm 2 mps 726 mmHg 20%
    12:00 +31°C° 0 mm 2 mps 725 mmHg 20%
    13:00 +32°C° 0 mm 2 mps 725 mmHg 19%
    14:00 +34°C° 0 mm 2 mps 724 mmHg 19%
    15:00 +34°C° 0 mm 2 mps 723 mmHg 19%
    16:00 +34°C° 0 mm 2 mps 723 mmHg 19%
    17:00 +34°C° 0 mm 3 mps 722 mmHg 19%
    18:00 +31°C° 0 mm 3 mps 722 mmHg 22%
    19:00 +28°C° 0 mm 2 mps 722 mmHg 25%
    20:00 +25°C° 0 mm 2 mps 723 mmHg 29%
    21:00 +24°C° 0 mm 2 mps 723 mmHg 31%
    22:00 +23°C° 0 mm 1 mps 723 mmHg 33%
    23:00 +21°C° 0 mm 1 mps 724 mmHg 35%

    Day after tomorrow, 27 February, Thursday

    Time Temperature Precipitation Wind Pressure Humidity
    00:00 +21°C° 0 mm 1 mps 724 mmHg 36%
    01:00 +18°C° 0 mm 0 mps 724 mmHg 37%
    02:00 +18°C° 0 mm 0 mps 723 mmHg 38%
    03:00 +20°C° 0 mm 1 mps 723 mmHg 38%
    04:00 +19°C° 0 mm 1 mps 723 mmHg 39%
    05:00 +19°C° 0 mm 1 mps 723 mmHg 39%
    06:00 +21°C° 0 mm 1 mps 724 mmHg 37%
    07:00 +23°C° 0 mm 2 mps 724 mmHg 34%
    08:00 +24°C° 0 mm 2 mps 725 mmHg 32%
    09:00 +26°C° 0 mm 3 mps 725 mmHg 29%
    10:00 +29°C° 0 mm 4 mps 725 mmHg 26%
    11:00 +32°C° 0 mm 4 mps 725 mmHg 22%
    12:00 +33°C° 0 mm 5 mps 724 mmHg 21%
    13:00 +34°C° 0 mm 5 mps 724 mmHg 20%
    14:00 +36°C° 0 mm 5 mps 723 mmHg 19%
    15:00 +35°C° 0 mm 5 mps 723 mmHg 19%
    16:00 +35°C° 0 mm 5 mps 722 mmHg 20%
    17:00 +35°C° 0 mm 5 mps 721 mmHg 21%
    18:00 +32°C° 0 mm 4 mps 721 mmHg 25%
    19:00 +28°C° 0 mm 4 mps 722 mmHg 29%
    20:00 +26°C° 0 mm 3 mps 722 mmHg 33%
    21:00 +25°C° 0 mm 3 mps 722 mmHg 35%
    22:00 +24°C° 0 mm 2 mps 722 mmHg 36%
    23:00 +24°C° 0 mm 2 mps 723 mmHg 38%

    28 February, Friday

    Time Temperature Precipitation Wind Pressure Humidity
    00:00 +23°C° 0 mm 2 mps 722 mmHg 39%
    01:00 +23°C° 0 mm 1 mps 722 mmHg 40%
    02:00 +22°C° 0 mm 1 mps 722 mmHg 40%
    03:00 +21°C° 0 mm 2 mps 722 mmHg 41%
    04:00 +21°C° 0 mm 2 mps 722 mmHg 41%
    05:00 +21°C° 0 mm 2 mps 722 mmHg 41%
    06:00 +24°C° 0 mm 2 mps 723 mmHg 37%
    07:00 +26°C° 0 mm 3 mps 724 mmHg 34%
    08:00 +28°C° 0 mm 3 mps 724 mmHg 30%
    09:00 +30°C° 0 mm 4 mps 724 mmHg 27%
    10:00 +34°C° 0 mm 4 mps 724 mmHg 23%
    11:00 +36°C° 0 mm 5 mps 724 mmHg 19%
    12:00 +37°C° 0 mm 5 mps 724 mmHg 18%
    13:00 +39°C° 0 mm 5 mps 723 mmHg 17%
    14:00 +40°C° 0 mm 5 mps 723 mmHg 15%
    15:00 +40°C° 0 mm 5 mps 723 mmHg 16%
    16:00 +39°C° 0 mm 5 mps 722 mmHg 16%
    17:00 +39°C° 0 mm 5 mps 722 mmHg 17%
    18:00 +35°C° 0 mm 5 mps 722 mmHg 20%
    19:00 +32°C° 0 mm 4 mps 722 mmHg 24%
    20:00 +28°C° 0 mm 3 mps 722 mmHg 28%
    21:00 +27°C° 0 mm 3 mps 723 mmHg 29%
    22:00 +27°C° 0 mm 3 mps 724 mmHg 30%
    23:00 +26°C° 0 mm 2 mps 724 mmHg 31%

    29 February, Saturday

    Time Temperature Precipitation Wind Pressure Humidity
    00:00 +25°C° 0 mm 2 mps 724 mmHg 35%
    01:00 +24°C° 0 mm 2 mps 724 mmHg 38%
    02:00 +23°C° 0 mm 1 mps 724 mmHg 41%
    03:00 +23°C° 0 mm 1 mps 724 mmHg 41%
    04:00 +23°C° 0 mm 2 mps 725 mmHg 40%
    05:00 +23°C° 0 mm 2 mps 725 mmHg 40%
    06:00 +26°C° 0 mm 2 mps 725 mmHg 36%
    07:00 +28°C° 0 mm 2 mps 726 mmHg 32%
    08:00 +30°C° 0 mm 2 mps 727 mmHg 27%
    09:00 +33°C° 0 mm 1 mps 727 mmHg 24%
    10:00 +35°C° 0 mm 1 mps 727 mmHg 20%
    11:00 +39°C° 0 mm 1 mps 727 mmHg 16%
    12:00 +39°C° 0 mm 2 mps 726 mmHg 16%
    13:00 +40°C° 0 mm 2 mps 726 mmHg 15%
    14:00 +40°C° 0 mm 2 mps 726 mmHg 14%
    15:00 +40°C° 0 mm 2 mps 725 mmHg 15%
    16:00 +39°C° 0 mm 2 mps 725 mmHg 15%
    17:00 +38°C° 0 mm 2 mps 724 mmHg 16%
    18:00 +36°C° 0 mm 2 mps 725 mmHg 20%
    19:00 +32°C° 0 mm 2 mps 725 mmHg 24%
    20:00 +30°C° 0 mm 1 mps 725 mmHg 27%
    21:00 +29°C° 0 mm 2 mps 725 mmHg 29%
    22:00 +28°C° 0 mm 2 mps 725 mmHg 31%
    23:00 +27°C° 0 mm 3 mps 725 mmHg 32%

    1 March, Sunday

    Time Temperature Precipitation Wind Pressure Humidity
    00:00 +26°C° 0 mm 3 mps 725 mmHg 32%
    01:00 +26°C° 0 mm 2 mps 725 mmHg 32%
    02:00 +25°C° 0 mm 2 mps 725 mmHg 31%
    03:00 +25°C° 0 mm 2 mps 725 mmHg 32%
    04:00 +24°C° 0 mm 2 mps 725 mmHg 32%
    05:00 +24°C° 0 mm 1 mps 725 mmHg 32%
    06:00 +25°C° 0 mm 1 mps 726 mmHg 29%
    07:00 +27°C° 0 mm 1 mps 726 mmHg 27%
    08:00 +29°C° 0 mm 1 mps 727 mmHg 24%
    09:00 +31°C° 0 mm 2 mps 727 mmHg 22%
    10:00 +35°C° 0 mm 2 mps 727 mmHg 19%
    11:00 +38°C° 0 mm 2 mps 727 mmHg 16%
    12:00 +39°C° 0 mm 3 mps 726 mmHg 15%
    13:00 +41°C° 0 mm 4 mps 726 mmHg 13%
    14:00 +42°C° 0 mm 5 mps 725 mmHg 11%
    15:00 +42°C° 0 mm 6 mps 724 mmHg 12%
    16:00 +41°C° 0 mm 6 mps 724 mmHg 12%
    17:00 +40°C° 0 mm 6 mps 723 mmHg 13%
    18:00 +37°C° 0 mm 5 mps 723 mmHg 16%
    19:00 +34°C° 0 mm 4 mps 723 mmHg 19%
    20:00 +30°C° 0 mm 3 mps 723 mmHg 23%
    21:00 +29°C° 0 mm 3 mps 723 mmHg 25%
    22:00 +28°C° 0 mm 2 mps 724 mmHg 27%
    23:00 +27°C° 0 mm 2 mps 724 mmHg 29%
    Show more